Location: Unspecified
(50.7693°N, 0.0000°E)
Time: 05:24:01
(UTC+00:00)

Transit 2A - Pass Details

Date: 23 August 2020
Orbit: 591 x 967 km, 66.7° (Epoch: 20 September)

Event Time Altitude Azimuth Distance (km) Brightness Sun altitude
Rises 20:16:10 0° 282° (WNW) 3,592 10.9 -11.1°
Reaches altitude 10° 20:19:23 10° 298° (WNW) 2,684 10.4 -11.6°
Maximum altitude 20:24:04 21° 346° (NNW) 2,028 8.8 -12.2°
Drops below altitude 10° 20:28:47 10° 33° (NNE) 2,713 8.9 -12.8°
Sets 20:32:04 0° 50° (NE) 3,641 9.4 -13.2°
